User: anonymous
Location: Caltech
(34.1382°N, 118.1253°W)
Time: 06:53:34
(UTC-07:00)
Language:

Cosmos 1833 Rocket - Orbit

View from above orbital plane
View from above orbital plane
View from above satellite
View from above satellite

Ground track
Ground track

The orbit data is extracted from the following two-line orbital elements,

1 17590U 87027B   14212.22370628 -.00000108  00000-0 -30072-4 0  7373
2 17590 071.0024 205.0073 0002734 114.6499 245.4909 14.16647071415139
Epoch (UTC): 31 July 2014 05:22:08
Eccentricity: 0.0002734
inclination: 71.0024°
perigee height: 835 km
apogee height: 838 km
right ascension of ascending node: 205.0073°
argument of perigee: 114.6499°
revolutions per day: 14.16647071
mean anomaly at epoch: 245.4909°
orbit number at epoch: 41513

The dashed part of the orbit path shows where the satellite is in the earth's shadow,  

DLR